SVA568 OEJN-OMDB

Flight info

Callsign SVA568
Flight time N/A
Altitude 39000
Route EGREP T532 KODIS Y214 RAPMA DCT KUVSO DCT KATIT DCT PEKEM M628 RIGIL G783 ELUDA/N0500F350 G783 ASPED Q308 KIPOK Q568 IMPED
Aircraft B77W/H-SDE1E2E3FGHIJ2J3J4J5M1RWXY/LB1D1

Departure

Time N/A
Airport King Abdulaziz International Airport (OEJN)

Arrival

Time 2026-04-25 22:26
Airport Dubai International Airport (OMDB)
Time Latitude Longitude Altitude Speed Heading
2026-04-25 20:37 23.74338 41.98638 39108 ft 538 kts 68°
2026-04-25 20:37 23.75609 42.02502 39112 ft 537 kts 66°
2026-04-25 20:37 23.78211 42.10077 39109 ft 537 kts 66°
2026-04-25 20:38 23.80822 42.17695 39116 ft 536 kts 66°
2026-04-25 20:38 23.83432 42.25335 39115 ft 537 kts 66°
2026-04-25 20:39 23.86029 42.32963 39120 ft 539 kts 66°
2026-04-25 20:39 23.88193 42.39330 39121 ft 537 kts 66°
2026-04-25 20:40 23.91215 42.48246 39124 ft 539 kts 65°
2026-04-25 20:40 23.93845 42.56014 39131 ft 549 kts 66°
2026-04-25 20:41 23.96471 42.63792 39133 ft 547 kts 66°
2026-04-25 20:41 23.99102 42.71600 39118 ft 549 kts 66°
2026-04-25 20:42 24.01713 42.79378 39117 ft 548 kts 68°
2026-04-25 20:42 24.03258 42.87555 39118 ft 555 kts 85°
2026-04-25 20:43 24.02694 42.95909 39124 ft 555 kts 103°
2026-04-25 20:43 24.00643 43.04025 39132 ft 555 kts 108°
2026-04-25 20:44 23.98463 43.12109 39134 ft 555 kts 108°
2026-04-25 20:44 23.96276 43.20174 39134 ft 554 kts 108°
2026-04-25 20:45 23.94083 43.28229 39137 ft 555 kts 108°
2026-04-25 20:45 23.91884 43.36280 39140 ft 555 kts 107°
2026-04-25 20:46 23.89674 43.44349 39149 ft 555 kts 108°
2026-04-25 20:46 23.87471 43.52374 39154 ft 555 kts 108°
2026-04-25 20:47 23.85242 43.60472 39150 ft 556 kts 108°
2026-04-25 20:47 23.83030 43.68493 39125 ft 553 kts 108°
2026-04-25 20:48 23.80796 43.76571 39127 ft 556 kts 108°
2026-04-25 20:48 23.78570 43.84606 39126 ft 554 kts 108°
2026-04-25 20:49 23.77084 43.92803 39139 ft 556 kts 95°
2026-04-25 20:49 23.76455 44.01206 39130 ft 555 kts 94°
2026-04-25 20:50 23.75843 44.09557 39133 ft 555 kts 94°
2026-04-25 20:50 23.75219 44.17965 39131 ft 554 kts 94°
2026-04-25 20:51 23.74592 44.26297 39133 ft 556 kts 94°
2026-04-25 20:51 23.73956 44.34680 39140 ft 554 kts 94°
2026-04-25 20:52 23.73423 44.41651 39135 ft 556 kts 94°
2026-04-25 20:52 23.72670 44.51425 39143 ft 557 kts 94°
2026-04-25 20:53 23.72017 44.59827 39138 ft 555 kts 94°
2026-04-25 20:53 23.71362 44.68203 39116 ft 556 kts 95°
2026-04-25 20:54 23.70700 44.76597 39124 ft 556 kts 94°
2026-04-25 20:54 23.70038 44.84943 39125 ft 554 kts 94°
2026-04-25 20:55 23.69373 44.93269 39123 ft 556 kts 94°
2026-04-25 20:55 23.68697 45.01658 39128 ft 553 kts 94°
2026-04-25 20:56 23.68021 45.09999 39124 ft 554 kts 94°
2026-04-25 20:56 23.67341 45.18337 39124 ft 553 kts 94°
2026-04-25 20:57 23.66658 45.26654 39132 ft 553 kts 94°
2026-04-25 20:57 23.65970 45.34972 39131 ft 552 kts 94°
2026-04-25 20:58 23.65279 45.43277 39132 ft 553 kts 94°
2026-04-25 20:58 23.64582 45.51599 39132 ft 551 kts 94°
2026-04-25 20:59 23.63881 45.59925 39121 ft 550 kts 94°
2026-04-25 20:59 23.63180 45.68187 39092 ft 550 kts 95°
2026-04-25 21:00 23.62711 45.73674 39094 ft 551 kts 95°
2026-04-25 21:01 23.61400 45.88913 39085 ft 552 kts 94°
2026-04-25 21:01 23.60683 45.97173 39086 ft 551 kts 94°
2026-04-25 21:02 23.59957 46.05481 39090 ft 550 kts 95°
2026-04-25 21:02 23.59228 46.13777 39105 ft 552 kts 95°
2026-04-25 21:03 23.58496 46.22058 39116 ft 549 kts 94°
2026-04-25 21:03 23.57762 46.30303 39137 ft 551 kts 94°
2026-04-25 21:04 23.57023 46.38564 39157 ft 551 kts 94°
2026-04-25 21:04 23.56274 46.46874 39170 ft 551 kts 95°
2026-04-25 21:05 23.55525 46.55143 39175 ft 550 kts 95°
2026-04-25 21:05 23.54773 46.63400 39146 ft 551 kts 95°
2026-04-25 21:06 23.54012 46.71690 39110 ft 550 kts 95°
2026-04-25 21:06 23.53247 46.79991 39095 ft 550 kts 95°
2026-04-25 21:07 23.52479 46.88271 39075 ft 552 kts 95°
2026-04-25 21:07 23.51705 46.96567 39064 ft 549 kts 95°
2026-04-25 21:08 23.50928 47.04844 39055 ft 551 kts 95°
2026-04-25 21:08 23.50145 47.13141 39053 ft 551 kts 95°
2026-04-25 21:09 23.48967 47.25531 39050 ft 550 kts 95°
2026-04-25 21:09 23.48174 47.33817 39047 ft 550 kts 95°
2026-04-25 21:10 23.47372 47.42142 39052 ft 550 kts 95°
2026-04-25 21:10 23.46576 47.50365 39053 ft 549 kts 95°
2026-04-25 21:11 23.45773 47.58614 39051 ft 548 kts 95°
2026-04-25 21:11 23.44963 47.66895 39019 ft 548 kts 95°
2026-04-25 21:12 23.44157 47.75095 39019 ft 549 kts 95°
2026-04-25 21:12 23.43475 47.81995 39011 ft 548 kts 95°
2026-04-25 21:13 23.42522 47.91584 39007 ft 550 kts 95°
2026-04-25 21:13 23.41698 47.99824 39005 ft 548 kts 95°
2026-04-25 21:14 23.40868 48.08080 39000 ft 549 kts 95°
2026-04-25 21:14 23.40040 48.16270 39009 ft 549 kts 95°
2026-04-25 21:15 23.39200 48.24536 39009 ft 549 kts 95°
2026-04-25 21:15 23.38364 48.32727 39005 ft 547 kts 95°
2026-04-25 21:16 23.37825 48.40977 39005 ft 548 kts 90°
2026-04-25 21:16 23.37544 48.49219 39008 ft 546 kts 90°
2026-04-25 21:17 23.37241 48.57438 39004 ft 544 kts 90°
2026-04-25 21:17 23.36919 48.65700 38999 ft 547 kts 91°
2026-04-25 21:18 23.36586 48.73907 38982 ft 543 kts 90°
2026-04-25 21:18 23.36243 48.82146 38969 ft 548 kts 91°
2026-04-25 21:19 23.35894 48.90367 38968 ft 545 kts 91°
2026-04-25 21:19 23.35538 48.98624 38954 ft 546 kts 90°
2026-04-25 21:20 23.35231 49.05428 38937 ft 545 kts 93°
2026-04-25 21:20 23.33994 49.14999 38944 ft 547 kts 98°
2026-04-25 21:21 23.32823 49.23119 38938 ft 547 kts 98°
2026-04-25 21:21 23.31646 49.31270 38938 ft 545 kts 98°
2026-04-25 21:22 23.30468 49.39406 38945 ft 547 kts 98°
2026-04-25 21:22 23.29286 49.47543 38941 ft 545 kts 97°
2026-04-25 21:23 23.28101 49.55670 38947 ft 545 kts 97°
2026-04-25 21:23 23.26923 49.63732 38948 ft 545 kts 97°
2026-04-25 21:24 23.25727 49.71878 38923 ft 542 kts 98°
2026-04-25 21:24 23.24540 49.79941 38927 ft 545 kts 98°
2026-04-25 21:25 23.23340 49.88057 38922 ft 543 kts 98°
2026-04-25 21:25 23.22146 49.96111 38924 ft 542 kts 98°
2026-04-25 21:26 23.20944 50.04183 38919 ft 541 kts 98°
2026-04-25 21:26 23.19739 50.12247 38926 ft 544 kts 98°
2026-04-25 21:27 23.18528 50.20325 38924 ft 540 kts 98°
2026-04-25 21:27 23.17313 50.28402 38921 ft 543 kts 98°
2026-04-25 21:28 23.16095 50.36465 38926 ft 544 kts 98°
2026-04-25 21:28 23.14873 50.44523 38928 ft 542 kts 98°
2026-04-25 21:29 23.13651 50.52559 38931 ft 540 kts 98°
2026-04-25 21:29 23.12419 50.60633 38933 ft 541 kts 97°
2026-04-25 21:30 23.11190 50.68657 38920 ft 539 kts 98°
2026-04-25 21:30 23.10160 50.75361 38924 ft 541 kts 98°
2026-04-25 21:31 23.08722 50.84687 38921 ft 540 kts 98°
2026-04-25 21:31 23.07475 50.92749 38924 ft 540 kts 98°
2026-04-25 21:32 23.06237 51.00718 38922 ft 539 kts 98°
2026-04-25 21:32 23.04986 51.08746 38925 ft 542 kts 98°
2026-04-25 21:33 23.03722 51.16829 38913 ft 542 kts 98°
2026-04-25 21:33 23.02463 51.24851 38923 ft 543 kts 98°
2026-04-25 21:34 23.01200 51.32872 38909 ft 540 kts 98°
2026-04-25 21:34 22.99929 51.40926 38898 ft 540 kts 98°
2026-04-25 21:35 22.98659 51.48935 38906 ft 542 kts 97°
2026-04-25 21:35 22.97377 51.57000 38909 ft 540 kts 97°
2026-04-25 21:36 22.96099 51.65006 38906 ft 541 kts 98°
2026-04-25 21:36 22.94808 51.73067 38894 ft 541 kts 98°
2026-04-25 21:37 22.93735 51.79753 38896 ft 542 kts 98°
2026-04-25 21:37 22.92233 51.89076 38898 ft 541 kts 98°
2026-04-25 21:38 22.90935 51.97102 38899 ft 542 kts 98°
2026-04-25 21:38 22.89633 52.05126 38895 ft 542 kts 97°
2026-04-25 21:39 22.88318 52.13205 38894 ft 542 kts 98°
2026-04-25 21:39 22.87013 52.21198 38898 ft 541 kts 98°
2026-04-25 21:40 22.85695 52.29238 38898 ft 541 kts 97°
2026-04-25 21:40 22.84379 52.37251 38896 ft 540 kts 97°
2026-04-25 21:41 22.83070 52.45184 38902 ft 539 kts 97°
2026-04-25 21:41 22.82287 52.53218 38913 ft 534 kts 88°
2026-04-25 21:42 22.82100 52.61243 38909 ft 534 kts 87°
2026-04-25 21:42 22.81908 52.69269 38897 ft 532 kts 88°
2026-04-25 21:43 22.81706 52.77293 38902 ft 535 kts 88°
2026-04-25 21:43 22.81495 52.85298 38900 ft 532 kts 88°
2026-04-25 21:44 22.81278 52.93344 38902 ft 533 kts 88°
2026-04-25 21:45 22.80945 53.05325 38902 ft 532 kts 88°
2026-04-25 21:45 22.80716 53.13357 38905 ft 532 kts 88°
2026-04-25 21:46 22.80484 53.21328 38904 ft 531 kts 88°
2026-04-25 21:46 22.80247 53.29348 38907 ft 531 kts 88°
2026-04-25 21:47 22.80009 53.37268 38908 ft 531 kts 88°
2026-04-25 21:47 22.79764 53.45278 38909 ft 530 kts 88°
2026-04-25 21:48 22.79516 53.53255 38905 ft 528 kts 88°
2026-04-25 21:48 22.79267 53.61151 38906 ft 531 kts 88°
2026-04-25 21:49 22.79011 53.69125 38889 ft 530 kts 88°
2026-04-25 21:49 22.78750 53.77158 38886 ft 532 kts 88°
2026-04-25 21:50 22.78485 53.85126 38882 ft 528 kts 88°
2026-04-25 21:50 22.78219 53.93085 38887 ft 532 kts 88°
2026-04-25 21:51 22.78374 54.01017 38890 ft 520 kts 76°
2026-04-25 21:51 22.79843 54.08662 38894 ft 518 kts 72°
2026-04-25 21:52 22.81389 54.16209 38893 ft 516 kts 72°
2026-04-25 21:52 22.82948 54.23851 38888 ft 517 kts 72°
2026-04-25 21:53 22.84482 54.31417 38896 ft 515 kts 72°
2026-04-25 21:53 22.86023 54.39030 38892 ft 519 kts 72°
2026-04-25 21:54 22.87561 54.46662 38896 ft 518 kts 72°
2026-04-25 21:54 22.89089 54.54269 38894 ft 517 kts 72°
2026-04-25 21:55 22.90615 54.61884 38897 ft 518 kts 72°
2026-04-25 21:55 22.92132 54.69471 38881 ft 518 kts 72°
2026-04-25 21:56 22.93655 54.77117 38881 ft 517 kts 72°
2026-04-25 21:56 22.95163 54.84701 38879 ft 518 kts 72°
2026-04-25 21:57 22.96686 54.92380 38886 ft 520 kts 72°
2026-04-25 21:57 22.98190 54.99990 38888 ft 518 kts 72°
2026-04-25 21:58 22.99695 55.07619 38887 ft 517 kts 72°
2026-04-25 21:58 23.02020 55.14892 38881 ft 502 kts 56°
2026-04-25 21:59 23.06067 55.20907 38880 ft 487 kts 38°
2026-04-25 21:59 23.11393 55.25206 38887 ft 471 kts 21°
2026-04-25 22:00 23.17415 55.27777 38889 ft 460 kts 12°
2026-04-25 22:00 23.20477 55.28857 38888 ft 460 kts 11°
2026-04-25 22:00 23.26638 55.30899 38888 ft 461 kts 10°
2026-04-25 22:01 23.32769 55.32824 38889 ft 458 kts
2026-04-25 22:01 23.37919 55.34397 38889 ft 459 kts
2026-04-25 22:02 23.45070 55.36548 38900 ft 458 kts
2026-04-25 22:02 23.51265 55.38397 38896 ft 457 kts
2026-04-25 22:03 23.57457 55.40236 38905 ft 461 kts
2026-04-25 22:03 23.63651 55.42075 38903 ft 459 kts
2026-04-25 22:04 23.69815 55.43905 38912 ft 458 kts
2026-04-25 22:04 23.75973 55.45732 38916 ft 460 kts
2026-04-25 22:05 23.82146 55.47567 38593 ft 454 kts
2026-04-25 22:05 23.85192 55.48473 37795 ft 455 kts
2026-04-25 22:05 23.88258 55.49382 37004 ft 457 kts
2026-04-25 22:06 23.91308 55.50286 36252 ft 458 kts 10°
2026-04-25 22:06 23.94384 55.51199 35481 ft 460 kts 10°
2026-04-25 22:06 23.97483 55.52197 34642 ft 465 kts 15°
2026-04-25 22:06 24.00477 55.53635 33793 ft 483 kts 24°
2026-04-25 22:07 24.03452 55.55669 32845 ft 510 kts 33°
2026-04-25 22:07 24.05281 55.57292 32162 ft 515 kts 38°
2026-04-25 22:07 24.08835 55.60808 30830 ft 519 kts 40°
2026-04-25 22:07 24.11481 55.63456 30165 ft 514 kts 40°
2026-04-25 22:08 24.14119 55.66094 29658 ft 506 kts 40°
2026-04-25 22:08 24.16715 55.68684 29060 ft 501 kts 40°
2026-04-25 22:08 24.19284 55.71246 28456 ft 496 kts 40°
2026-04-25 22:08 24.21831 55.73784 27840 ft 492 kts 40°
2026-04-25 22:09 24.24338 55.76282 27216 ft 488 kts 41°
2026-04-25 22:09 24.26836 55.78769 26590 ft 484 kts 40°
2026-04-25 22:09 24.29328 55.81251 25967 ft 480 kts 41°
2026-04-25 22:09 24.31782 55.83696 25343 ft 477 kts 41°
2026-04-25 22:10 24.34232 55.86137 24701 ft 473 kts 41°
2026-04-25 22:10 24.36670 55.88541 24058 ft 470 kts 38°
2026-04-25 22:10 24.39291 55.90597 23272 ft 466 kts 29°
2026-04-25 22:10 24.42154 55.92171 22387 ft 460 kts 20°
2026-04-25 22:11 24.45187 55.93222 21539 ft 452 kts 10°
2026-04-25 22:11 24.48269 55.93730 20777 ft 443 kts
2026-04-25 22:11 24.51308 55.93719 20027 ft 433 kts 353°
2026-04-25 22:11 24.54269 55.93223 19231 ft 426 kts 344°
2026-04-25 22:12 24.57076 55.92337 18412 ft 420 kts 340°
2026-04-25 22:12 24.59869 55.91361 17637 ft 416 kts 340°
2026-04-25 22:12 24.62595 55.90404 16875 ft 411 kts 340°
2026-04-25 22:12 24.64397 55.89771 16377 ft 407 kts 340°
2026-04-25 22:13 24.67929 55.88530 15516 ft 393 kts 340°
2026-04-25 22:13 24.70478 55.87634 15020 ft 376 kts 340°
2026-04-25 22:13 24.72939 55.86770 14600 ft 358 kts 340°
2026-04-25 22:13 24.75232 55.85964 14244 ft 341 kts 340°
2026-04-25 22:14 24.77452 55.85183 13969 ft 325 kts 340°
2026-04-25 22:14 24.79556 55.84443 13786 ft 308 kts 340°
2026-04-25 22:14 24.81531 55.83748 13550 ft 292 kts 340°
2026-04-25 22:14 24.83458 55.83069 13132 ft 284 kts 340°
2026-04-25 22:15 24.85330 55.82408 12593 ft 281 kts 340°
2026-04-25 22:15 24.87166 55.81760 11985 ft 281 kts 340°
2026-04-25 22:15 24.89041 55.81097 11420 ft 279 kts 340°
2026-04-25 22:16 24.92632 55.79827 9525 ft 275 kts 340°
2026-04-25 22:16 24.94406 55.79199 8743 ft 267 kts 340°
2026-04-25 22:16 24.96120 55.78594 8314 ft 247 kts 340°
2026-04-25 22:16 24.97700 55.78037 8031 ft 229 kts 340°
2026-04-25 22:17 24.99179 55.77513 7769 ft 215 kts 340°
2026-04-25 22:17 25.00562 55.76993 7523 ft 203 kts 332°
2026-04-25 22:17 25.01791 55.76244 7289 ft 200 kts 324°
2026-04-25 22:17 25.02863 55.75309 7049 ft 195 kts 315°
2026-04-25 22:18 25.03794 55.74218 6821 ft 194 kts 309°
2026-04-25 22:18 25.04617 55.73048 6591 ft 192 kts 305°
2026-04-25 22:18 25.05373 55.71850 6365 ft 192 kts 303°
2026-04-25 22:18 25.06102 55.70623 6133 ft 190 kts 302°
2026-04-25 22:19 25.06811 55.69393 5903 ft 190 kts 302°
2026-04-25 22:19 25.07517 55.68151 5661 ft 189 kts 302°
2026-04-25 22:19 25.08210 55.66925 5429 ft 187 kts 302°
2026-04-25 22:19 25.08896 55.65707 5198 ft 188 kts 302°
2026-04-25 22:20 25.09582 55.64486 4966 ft 187 kts 302°
2026-04-25 22:20 25.10266 55.63268 4732 ft 187 kts 303°
2026-04-25 22:20 25.10965 55.62054 4498 ft 186 kts 303°
2026-04-25 22:20 25.11646 55.60853 4271 ft 185 kts 303°
2026-04-25 22:21 25.12326 55.59644 4037 ft 186 kts 302°
2026-04-25 22:21 25.13004 55.58430 3804 ft 184 kts 302°
2026-04-25 22:21 25.13675 55.57230 3579 ft 185 kts 303°
2026-04-25 22:21 25.14347 55.56027 3350 ft 184 kts 302°
2026-04-25 22:22 25.15020 55.54823 3119 ft 183 kts 302°
2026-04-25 22:22 25.15686 55.53630 2895 ft 181 kts 302°
2026-04-25 22:22 25.16332 55.52475 2670 ft 170 kts 302°
2026-04-25 22:22 25.16939 55.51390 2461 ft 164 kts 302°
2026-04-25 22:23 25.17534 55.50325 2257 ft 163 kts 302°
2026-04-25 22:23 25.18128 55.49260 2047 ft 162 kts 302°
2026-04-25 22:23 25.18726 55.48188 1836 ft 163 kts 302°
2026-04-25 22:23 25.19325 55.47114 1620 ft 163 kts 302°
2026-04-25 22:24 25.19907 55.46073 1407 ft 157 kts 302°
2026-04-25 22:24 25.20473 55.45058 1210 ft 146 kts 302°
2026-04-25 22:24 25.21005 55.44107 1024 ft 144 kts 301°
2026-04-25 22:24 25.21539 55.43160 873 ft 142 kts 302°
2026-04-25 22:25 25.22078 55.42211 731 ft 146 kts 300°
2026-04-25 22:25 25.22613 55.41240 483 ft 150 kts 302°
2026-04-25 22:25 25.23170 55.40271 250 ft 147 kts 301°
2026-04-25 22:25 25.23700 55.39297 69 ft 147 kts 300°
2026-04-25 22:26 25.24161 55.38457 62 ft 104 kts 302°
2026-04-25 22:26 25.24461 55.37918 58 ft 59 kts 301°
2026-04-25 22:26 25.24656 55.37573 55 ft 39 kts 302°
2026-04-25 22:26 25.24769 55.37310 54 ft 36 kts 283°
2026-04-25 22:27 25.24788 55.37044 52 ft 27 kts 274°
2026-04-25 22:27 25.24835 55.36874 52 ft 21 kts 288°
2026-04-25 22:27 25.24877 55.36718 52 ft 20 kts 289°
2026-04-25 22:27 25.24939 55.36577 50 ft 20 kts 301°
2026-04-25 22:28 25.25015 55.36435 44 ft 22 kts 301°
2026-04-25 22:28 25.25102 55.36280 41 ft 22 kts 303°
2026-04-25 22:28 25.25180 55.36146 45 ft 19 kts 300°
2026-04-25 22:28 25.25253 55.36010 40 ft 21 kts 301°
2026-04-25 22:29 25.25327 55.35875 42 ft 19 kts 301°
2026-04-25 22:29 25.25396 55.35753 41 ft 19 kts 303°
2026-04-25 22:29 25.25468 55.35624 38 ft 20 kts 301°
2026-04-25 22:30 25.25616 55.35355 37 ft 18 kts 301°
2026-04-25 22:30 25.25681 55.35235 37 ft 18 kts 301°
2026-04-25 22:30 25.25749 55.35114 36 ft 18 kts 303°
2026-04-25 22:30 25.25791 55.35035 36 ft 17 kts 301°
2026-04-25 22:31 25.25874 55.34883 36 ft 17 kts 300°
2026-04-25 22:31 25.25906 55.34815 35 ft 7 kts 278°
2026-04-25 22:31 25.25877 55.34760 34 ft 9 kts 208°
2026-04-25 22:31 25.25831 55.34735 34 ft 7 kts 211°
2026-04-25 22:32 25.25786 55.34705 34 ft 4 kts 211°
2026-04-25 22:32 25.25772 55.34695 34 ft 0 kts 211°